Location: Erlingen
(48.5292°N, 10.8389°E)
Time: 05:35:15
(UTC+00:00)

Daily predictions for brighter satellites

Satellite Brightness Start Highest point End
(mag) Time Altitude Azimuth Time Altitude Azimuth Time Altitude Azimuth
STARLINK-1228 3.2 00:00:20 10° WNW 00:03:20 59° WSW 00:03:20 59° WSW
Cosmos 2219 4.0 00:00:08 10° NNW 00:05:41 51° NE 00:11:10 10° SE
PSLV R/B 3.7 00:03:28 10° N 00:08:04 71° WNW 00:09:38 39° SW
STARLINK-1197 4.0 00:04:23 10° WNW 00:08:31 63° NNE 00:12:38 10° E
Cosmos 1953 4.3 00:06:53 10° NW 00:09:19 16° W 00:09:56 15° W
Cosmos 1867 4.2 00:07:34 10° NW 00:12:36 38° WSW 00:13:54 33° SSW
Timation 2 Rocket 3.9 00:07:01 10° NNW 00:13:24 78° WSW 00:17:13 24° SSE
STARLINK-1198 4.0 00:09:23 10° WNW 00:13:32 66° NNE 00:17:39 10° ESE
Cosmos 1892 Rocket 3.6 00:12:32 41° SSW 00:13:57 68° WNW 00:18:20 10° N
Meteor 2-14 Rocket 4.4 00:13:24 32° SSW 00:16:27 82° W 00:22:37 10° N
Cosmos 1244 Rocket 4.5 00:13:54 31° SSW 00:17:04 77° W 00:23:16 10° N
Cosmos 2297 Rocket 2.9 00:12:33 10° NNW 00:18:06 52° NE 00:23:35 10° SE
STARLINK-1199 3.9 00:14:21 10° WNW 00:18:30 69° NNE 00:22:38 10° ESE
Cosmos 1674 3.9 00:17:42 26° W 00:18:38 29° WNW 00:21:59 10° N
SL-16 R/B 3.1 00:13:21 12° SE 00:18:57 55° ENE 00:24:58 10° N
Cosmos 1726 Rocket 4.3 00:17:11 10° NNW 00:21:10 37° W 00:22:11 32° WSW
Lacrosse 4 Rocket 4.2 00:17:59 10° N 00:21:12 20° NE 00:24:23 10° E
STARLINK-60 2.9 00:21:09 55° W 00:21:44 78° NNW 00:24:56 10° ENE
Cosmos 1745 Rocket 4.2 00:18:39 26° SSE 00:22:10 65° E 00:28:14 10° NNE
COSMOS 2455 3.0 00:18:53 25° SW 00:22:29 69° NW 00:28:32 10° NNE
STARLINK-1210 3.8 00:19:20 10° WNW 00:23:30 72° NNE 00:27:38 10° ESE
Starlink 7 placeholder 4.3 00:27:39 22° NE 00:27:39 22° NE 00:28:37 10° NE
MOZ.5/SAFIR/RUBIN 5/SL-8 4.0 00:25:18 23° SSE 00:28:08 66° ENE 00:32:44 10° N
Cosmos 1437 2.4 00:28:12 72° SSE 00:28:26 81° E 00:31:28 10° NNE
STARLINK-1219 3.7 00:24:19 10° WNW 00:28:28 76° NNE 00:32:37 10° ESE
Cosmos 2084 3.8 00:31:35 37° S 00:33:03 56° SE 00:37:26 10° NE
Cosmos 1455 3.7 00:29:52 10° N 00:33:15 31° ENE 00:35:58 14° SE
STARLINK-1211 3.7 00:29:18 10° WNW 00:33:28 80° NNE 00:37:37 10° ESE
Spot 1 4.3 00:32:33 34° S 00:34:33 66° WSW 00:39:28 10° NNW
SL-08 ROCKET BODY 4.4 00:31:53 27° S 00:35:13 77° E 00:41:05 10° NNE
Cosmos 1898 Rocket 4.5 00:30:10 10° NNW 00:35:20 47° ENE 00:40:27 10° SE
ADEOS II 4.2 00:32:04 10° NE 00:35:47 19° E 00:39:29 10° SE
Meteor 1-29 3.6 00:32:37 10° N 00:35:52 42° WNW 00:36:37 36° WSW
STARLINK-1245 3.6 00:34:17 10° WNW 00:38:26 84° NNE 00:42:35 10° ESE
SL-4 R/B 2.4 00:35:31 20° WSW 00:38:52 87° NNW 00:43:37 10° ENE
STARLINK-1233 3.5 00:39:15 10° WNW 00:43:25 88° NNE 00:47:34 10° ESE
CZ-2D R/B 2.6 00:38:57 10° NNE 00:44:06 51° E 00:47:17 22° SSE
SJ 16-02 1.8 00:41:40 10° NNW 00:46:04 59° ENE 00:50:03 12° SE
Resurs 1-4 Rocket 2.5 00:41:57 10° NNE 00:47:10 56° E 00:50:27 22° S
DELTA 2 DEB (DPAF) 4.2 00:46:21 31° S 00:48:20 64° WSW 00:52:47 10° NNW
STARLINK-1204 3.5 00:44:15 10° WNW 00:48:25 87° SSW 00:52:33 10° ESE
Cosmos 921 Rocket 3.1 00:47:04 33° SW 00:48:51 63° WNW 00:53:09 10° NNE
Cosmos 2058 Rocket 4.2 00:46:26 10° NNW 00:50:18 30° W 00:51:37 25° WSW
STARLINK-29 2.9 00:49:33 42° WSW 00:50:30 85° NNW 00:53:43 10° ENE
STARLINK-1238 3.5 00:49:14 10° WNW 00:53:24 83° SSW 00:57:32 10° ESE
Cosmos 2227 Rocket 2.3 00:48:26 10° NNW 00:54:09 80° ENE 00:59:50 10° SSE
Cosmos 1697 Rocket 4.0 00:51:50 15° SSE 00:55:41 31° ESE 01:00:35 10° NE
STARLINK-1201 3.5 00:54:13 10° WNW 00:58:23 78° SSW 01:02:31 10° ESE
BREEZE-M R/B 2.9 00:56:16 27° SW 00:58:28 54° SSE 01:01:27 10° E
Meteor 2-1 Rocket 4.1 00:54:41 10° NNW 01:00:13 77° W 01:04:04 20° S
STARLINK-1240 4.5 00:56:27 10° WNW 01:00:31 52° NNE 01:04:36 10° E
GEOS 3 Rocket 4.1 00:58:32 25° S 01:00:53 38° WSW 01:05:48 10° NW
FALCON 9 R/B 4.0 00:57:53 21° SW 01:02:19 37° SSE 01:21:40 10° ESE
STARLINK-1206 3.5 00:59:11 10° WNW 01:03:21 73° SSW 01:07:27 10° SE
STARLINK-1338 3.8 01:03:21 34° S 01:04:15 42° SE 01:07:39 10° ENE
ATLAS CENTAUR R/B 2.8 01:01:33 14° W 01:04:44 32° NW 01:08:25 10° NNE
Cosmos 1626 Rocket 3.8 01:02:56 29° SW 01:04:55 57° WNW 01:09:14 10° N
STARLINK-1216 4.4 01:01:25 10° WNW 01:05:30 54° NNE 01:09:35 10° E
NPP 3.8 01:00:50 10° NNE 01:06:15 70° ESE 01:09:57 21° S
Cosmos 220 Rocket 4.4 01:06:00 26° SW 01:08:17 55° WNW 01:12:40 10° NNE
STARLINK-1205 3.5 01:04:11 10° WNW 01:08:18 69° SSW 01:12:25 10° SE
STARLINK-1371 3.7 01:07:56 33° SSW 01:09:01 45° SE 01:12:28 10° ENE
CZ-4B R/B 3.8 01:04:38 10° NNE 01:09:47 65° ESE 01:13:30 19° S
Cosmos 1703 4.1 01:07:34 18° SSE 01:10:10 45° E 01:13:58 10° NNE
STARLINK-1237 4.3 01:06:24 10° WNW 01:10:30 56° NNE 01:14:36 10° E
STARLINK-1341 3.6 01:10:15 33° SSW 01:11:23 47° SE 01:14:50 10° ENE
BREEZE-M DEB (TANK) 3.3 01:11:52 21° SE 01:11:52 21° SE 01:13:26 10° E
Cosmos 1709 Rocket 4.0 01:07:36 20° S 01:12:01 84° E 01:18:12 10° N
Cosmos 1656 3.8 01:08:23 23° SSW 01:12:01 70° ESE 01:17:38 10° NNE
Meteor 2-10 Rocket 3.5 01:07:27 10° NNW 01:12:48 83° W 01:16:53 16° S
STARLINK-1218 3.5 01:09:09 10° WNW 01:13:16 64° SSW 01:17:22 10° SE
CZ-4C R/B 3.0 01:10:23 18° S 01:13:31 36° ESE 01:18:49 10° NE
STARLINK-1374 3.5 01:12:34 32° SSW 01:13:48 49° SSE 01:17:16 10° ENE
FALCON 9 DEB 3.1 01:13:19 27° WSW 01:15:05 87° NNW 01:18:34 10° ENE
STARLINK-1202 4.3 01:11:25 10° WNW 01:15:31 58° NNE 01:19:37 10° E
OE (NEXTSAT) 4.4 01:14:21 27° WSW 01:16:01 56° S 01:19:27 10° E
STARLINK-1339 3.5 01:14:55 31° SSW 01:16:16 51° SSE 01:19:46 10° ENE
Cosmos 990 Rocket 3.9 01:12:41 10° NNW 01:17:58 81° WSW 01:23:13 10° SSE
RESURS DK-1 3.6 01:15:35 17° WSW 01:18:08 33° NW 01:21:56 10° NNE
STARLINK-1254 3.6 01:14:08 10° WNW 01:18:14 60° SSW 01:22:19 10° SE
STARLINK-1377 3.5 01:17:17 30° SSW 01:18:43 53° SSE 01:22:14 10° ENE
STARLINK-1353 3.4 01:19:40 29° SSW 01:21:12 56° SSE 01:24:44 10° ENE
STARLINK-1231 3.6 01:19:08 10° WNW 01:23:13 56° SSW 01:27:16 10° SE
ATLAS 3B R/B 3.8 01:18:00 10° WNW 01:23:13 24° WSW 01:25:58 19° SW
STARLINK-1375 3.4 01:22:02 29° SW 01:23:39 58° SSE 01:27:10 10° ENE
CZ-4C R/B 4.1 01:22:03 24° SSW 01:24:02 39° W 01:28:08 10° NNW
STARLINK-1246 4.1 01:21:22 10° WNW 01:25:29 62° NNE 01:29:37 10° E
Cosmos 1812 Rocket 4.1 01:21:37 10° NNW 01:25:51 43° W 01:28:18 22° SSW
STARLINK-1350 3.3 01:24:27 27° SW 01:26:10 61° SSE 01:29:44 10° ENE
STARLINK-52 3.4 01:24:32 17° W 01:26:49 58° NNW 01:30:01 10° ENE
Cosmos 1626 4.3 01:25:23 12° W 01:27:03 15° WNW 01:29:15 10° NNW
STARLINK-1232 3.7 01:24:08 10° WNW 01:28:10 52° SW 01:32:12 10° SE
CBERS-1 4.3 01:23:34 10° NNE 01:28:40 64° ESE 01:32:56 15° S
STARLINK-1352 3.3 01:26:53 26° SW 01:28:41 63° SSE 01:32:16 10° ENE
STARLINK-1224 4.1 01:26:21 10° WNW 01:30:29 65° NNE 01:34:36 10° ESE
STARLINK-1368 3.3 01:29:19 25° SW 01:31:14 66° SSE 01:34:49 10° ENE
Cosmos 841 Rocket 4.4 01:27:07 13° S 01:31:33 44° ESE 01:36:29 10° NE
STARLINK-1208 3.8 01:29:08 10° WNW 01:33:08 48° SW 01:37:08 10° SE
STARLINK-1369 3.2 01:31:46 24° SW 01:33:47 69° SSE 01:37:23 10° ENE
Cosmos 2369 4.1 01:30:19 16° S 01:34:46 56° ESE 01:40:18 10° NE
STARLINK-1225 4.0 01:31:19 10° WNW 01:35:28 68° NNE 01:39:35 10° ESE
STARLINK-1372 3.2 01:34:13 23° SW 01:36:21 71° SSE 01:39:57 10° ENE
Cosmos 1825 Rocket 3.5 01:35:00 19° SSW 01:38:05 83° W 01:42:27 10° N
STARLINK-1271 3.9 01:34:07 10° WNW 01:38:05 45° SW 01:42:02 10° SE
Cosmos 1602 Rocket 4.5 01:36:14 19° SW 01:38:43 34° WNW 01:42:41 10° N
STARLINK-1378 3.2 01:36:43 22° SW 01:38:56 74° SSE 01:42:32 10° ENE
Meteor 1-21 Rocket 4.4 01:34:55 19° SSW 01:38:59 62° WNW 01:44:40 10° N
STARLINK-1230 3.9 01:36:19 10° WNW 01:40:27 71° NNE 01:44:35 10° ESE
STARLINK-1329 3.2 01:38:25 21° SW 01:40:43 76° SSE 01:44:20 10° ENE
Cosmos-2242 3.0 01:37:01 10° NNW 01:41:16 65° W 01:44:49 14° S
STARLINK-1379 3.2 01:39:11 21° SW 01:41:30 77° SSE 01:45:08 10° ENE
STARLINK-1365 3.2 01:40:27 20° WSW 01:42:52 81° SSE 01:46:32 10° ENE
STARLINK-1154 3.9 01:39:07 10° WNW 01:43:03 42° SW 01:46:57 10° SSE
Cosmos 2221 4.3 01:39:19 10° N 01:43:14 31° ENE 01:47:07 10° SE
ERS-2 3.5 01:39:47 10° SE 01:43:14 41° ENE 01:46:43 10° N
STARLINK-1362 3.2 01:40:58 20° WSW 01:43:22 79° SSE 01:47:00 10° ENE
IRS-1D 3.6 01:39:10 10° NNE 01:44:33 86° ESE 01:49:10 14° SSW
STARLINK-1243 3.8 01:41:17 10° WNW 01:45:26 75° NNE 01:49:35 10° ESE
STARLINK-1373 3.2 01:43:27 19° WSW 01:45:59 82° SSE 01:49:38 10° ENE
BREEZE M DEB (TANK) 3.1 01:44:00 11° W 01:46:15 38° SSW 01:51:17 10° SE
STARLINK-1197 4.0 01:44:07 10° WNW 01:47:59 39° SW 01:51:51 10° SSE
Cosmos 1763 Rocket 3.4 01:44:25 17° SSW 01:48:23 79° WNW 01:53:30 10° NNE
STARLINK-1390 3.2 01:45:52 18° WSW 01:48:28 84° SSE 01:52:06 10° ENE
Cosmos 1980 Rocket 3.1 01:43:33 10° S 01:48:47 42° ESE 01:54:05 10° NE
Cosmos 2219 4.1 01:44:44 10° NW 01:49:34 30° WSW 01:53:28 14° SSW
STARLINK-1236 3.8 01:46:16 10° WNW 01:50:27 78° NNE 01:54:35 10° ESE
ATLAS CENTAUR R/B 2.7 01:47:58 10° WNW 01:50:56 34° SW 01:57:05 10° SSE
STARLINK-1198 4.1 01:49:09 10° WNW 01:52:58 36° SW 01:56:47 10° SSE
STARLINK-1320 2.9 01:50:50 17° WSW 01:53:07 81° NNW 01:56:15 10° ENE
STARLINK-1322 2.9 01:51:09 17° WSW 01:53:28 81° NNW 01:56:36 10° ENE
ATLAS 2AS CENTAUR R/B 4.4 01:46:25 10° W 01:53:33 34° NNW 02:00:30 10° NE
STARLINK-1324 2.9 01:51:29 17° WSW 01:53:48 80° NNW 01:56:56 10° ENE
STARLINK-1294 2.9 01:51:46 16° WSW 01:54:06 80° NNW 01:57:16 10° ENE
Cosmos 2074 Rocket 4.3 01:48:06 10° S 01:54:21 73° E 02:00:39 10° NNE
STARLINK-1261 2.9 01:52:09 16° WSW 01:54:29 80° NNW 01:57:37 10° ENE
STARLINK-1325 2.9 01:52:27 16° WSW 01:54:48 79° NNW 01:57:57 10° ENE
STARLINK-1333 2.9 01:52:48 16° WSW 01:55:10 79° NNW 01:58:17 10° ENE
STARLINK-1334 2.9 01:53:07 16° WSW 01:55:29 79° NNW 01:58:37 10° ENE
GP-B 3.5 01:51:31 10° N 01:55:48 48° W 01:59:19 15° SSW
STARLINK-1326 2.9 01:53:27 16° WSW 01:55:51 78° NNW 01:58:59 10° ENE
STARLINK-1323 2.9 01:53:46 16° WSW 01:56:10 78° NNW 01:59:18 10° ENE
STARLINK-1349 2.9 01:54:06 16° WSW 01:56:30 78° NNW 01:59:38 10° ENE
STARLINK-1336 2.9 01:54:25 15° WSW 01:56:50 77° NNW 01:59:58 10° ENE
STARLINK-1331 2.9 01:54:45 15° WSW 01:57:11 77° NNW 02:00:19 10° ENE
STARLINK-1344 2.9 01:55:05 15° WSW 01:57:32 76° NNW 02:00:40 10° ENE
STARLINK-1343 2.9 01:55:23 15° WSW 01:57:51 76° NNW 02:00:59 10° ENE
STARLINK-1199 4.2 01:54:08 10° WNW 01:57:53 33° SW 02:01:38 10° SSE
STARLINK-60 4.5 01:55:09 10° WNW 01:58:09 35° N 02:01:10 10° ENE
STARLINK-1346 3.0 01:55:40 15° WSW 01:58:11 76° NNW 02:01:21 10° ENE
STARLINK-1328 2.9 01:56:02 15° WSW 01:58:32 75° NNW 02:01:40 10° ENE
STARLINK-1354 2.9 01:56:22 15° WSW 01:58:52 75° NNW 02:02:00 10° ENE
STARLINK-1347 3.0 01:56:41 15° WSW 01:59:13 75° NNW 02:02:21 10° ENE
STARLINK-1357 3.0 01:57:01 15° WSW 01:59:32 74° NNW 02:02:40 10° ENE
STARLINK-1335 3.0 01:57:23 14° WSW 01:59:56 74° NNW 02:03:03 10° ENE
STARLINK-1327 3.0 01:57:41 14° WSW 02:00:14 74° NNW 02:03:22 10° ENE
STARLINK-1269 3.6 01:56:13 10° WNW 02:00:23 87° NNE 02:04:32 10° ESE
Lacrosse 4 Rocket 1.4 01:56:05 10° NW 02:00:26 75° WSW 02:04:39 10° SSE
STARLINK-1340 3.0 01:57:59 14° WSW 02:00:33 73° NNW 02:03:42 10° ENE
Starlink 7 placeholder 4.4 01:59:11 10° NW 02:00:46 20° N 02:02:24 10° NE
STARLINK-1356 3.0 01:58:18 14° WSW 02:00:53 73° NNW 02:04:01 10° ENE
STARLINK-1345 3.0 01:58:39 14° WSW 02:01:15 73° NNW 02:04:22 10° ENE
STARLINK-1355 3.0 01:58:58 14° WSW 02:01:34 72° NNW 02:04:42 10° ENE
Cosmos 2297 Rocket 3.1 01:57:03 10° NW 02:01:53 29° WSW 02:06:36 10° SSW
STARLINK-1321 3.0 01:59:18 14° WSW 02:01:56 72° NNW 02:05:03 10° ENE
STARLINK-1358 3.0 01:59:37 14° WSW 02:02:15 72° NNW 02:05:23 10° ENE
STARLINK-1332 3.0 01:59:59 13° WSW 02:02:38 71° NNW 02:05:46 10° ENE
STARLINK-1210 4.3 01:59:11 10° WNW 02:02:51 31° SW 02:06:32 10° SSE
SL-16 R/B 3.4 01:58:27 14° SSW 02:02:52 30° W 02:08:12 10° NW
STARLINK-1348 3.0 02:00:16 13° WSW 02:02:56 71° NNW 02:06:03 10° ENE
STARLINK-1330 3.0 02:00:36 13° WSW 02:03:16 71° NNW 02:06:23 10° ENE
STARLINK-1363 3.0 02:00:57 13° WSW 02:03:38 70° NNW 02:06:45 10° ENE
Cosmos 2150 Rocket 4.5 01:58:43 10° NNW 02:03:54 64° ENE 02:09:01 10° SSE
STARLINK-1337 3.0 02:01:15 13° WSW 02:03:58 70° NNW 02:07:05 10° ENE
STARLINK-1342 3.0 02:01:33 13° WSW 02:04:16 70° NNW 02:07:24 10° ENE
STARLINK-1364 3.1 02:01:54 13° WSW 02:04:38 69° NNW 02:07:44 10° ENE
STARLINK-1376 3.1 02:02:14 13° WSW 02:04:58 69° NNW 02:08:06 10° ENE
STARLINK-1360 3.1 02:02:33 13° WSW 02:05:19 69° NNW 02:08:26 10° ENE
STARLINK-1200 3.6 02:01:13 10° WNW 02:05:23 89° SSW 02:09:32 10° ESE
STARLINK-1361 3.1 02:02:53 12° WSW 02:05:39 68° NNW 02:08:46 10° ENE
STARLINK-1367 3.1 02:03:08 12° WSW 02:05:57 69° NNW 02:09:06 10° ENE
STARLINK-1366 3.1 02:03:33 12° WSW 02:06:20 68° NNW 02:09:27 10° ENE
Cosmos 2082 3.9 02:02:08 10° NW 02:07:36 50° WSW 02:13:00 10° S
STARLINK-1219 4.4 02:04:12 10° WNW 02:07:47 29° SW 02:11:22 10° SSE
NOSS 7 (H) 4.3 02:05:34 15° SW 02:08:02 65° NW 02:10:58 10° NE
Cosmos 2184 Rocket 4.0 02:01:56 10° S 02:08:06 86° E 02:14:19 10° N
Cosmos 1455 3.6 02:05:49 10° NW 02:08:41 21° W 02:10:52 13° SW
Cosmos 1328 4.4 02:06:11 14° SW 02:09:19 42° WNW 02:13:08 10° N
STARLINK-1192 3.6 02:06:12 10° WNW 02:10:22 84° SSW 02:14:32 10° ESE
Cosmos 2084 Rocket 4.4 02:06:30 10° NW 02:10:54 55° NE 02:15:19 10° ESE
ARIANE 5 R/B 2.7 02:05:51 10° NNE 02:10:56 73° ESE 02:15:56 10° S
Meteor 1-28 Rocket 3.2 02:09:47 10° SSE 02:13:34 88° ENE 02:17:21 10° NNW
Cosmos 2263 Rocket 3.1 02:09:05 10° NNW 02:14:36 53° NE 02:20:03 10° SE
STARLINK-1244 3.5 02:11:11 10° WNW 02:15:20 80° SSW 02:19:29 10° ESE
Cosmos 2278 3.8 02:09:52 10° SSW 02:15:26 79° ESE 02:21:08 10° NNE
ADEOS II 2.2 02:10:45 10° N 02:15:59 68° WNW 02:21:12 10° SSW
Cosmos 1898 Rocket 4.5 02:12:40 10° NW 02:17:11 28° W 02:21:39 10° SSW
H-2A R/B 2.3 02:13:01 10° SSE 02:17:21 77° ENE 02:21:48 10° NNW
SL-4 R/B 3.0 02:14:08 10° W 02:18:54 58° N 02:23:27 10° E
STARLINK-1138 3.5 02:16:09 10° WNW 02:20:18 75° SSW 02:24:26 10° SE
Spot 4 Rocket 4.4 02:15:53 10° NNE 02:21:02 66° ESE 02:26:08 10° S
Cosmos 2322 Rocket 4.4 02:17:03 10° SSE 02:21:04 20° E 02:25:05 10° NE
Timation 1 Rocket 4.5 02:15:13 10° NNW 02:21:14 85° ENE 02:27:12 10° SSE
IRS-P3 4.3 02:17:00 10° N 02:22:18 66° WNW 02:27:34 10° SSW
STARLINK 1040 4.3 02:20:51 10° S 02:22:50 20° SE 02:24:49 10° E
Cosmos 1892 4.4 02:19:57 10° SSE 02:23:24 33° E 02:26:51 10° NNE
CZ-2D R/B 3.4 02:19:32 10° N 02:23:52 27° WNW 02:28:10 10° WSW
SJ 16-02 3.0 02:21:23 10° WNW 02:24:10 17° W 02:26:57 10° SW
Cosmos 1937 Rocket 4.3 02:19:39 10° NW 02:24:18 33° WSW 02:28:59 10° SSW
STARLINK-1143 3.6 02:21:07 10° WNW 02:25:15 71° SSW 02:29:23 10° SE
Cosmos 2298 Rocket 4.0 02:21:06 10° NNW 02:26:26 79° WSW 02:31:43 10° SSE
Resurs 1-4 Rocket 3.5 02:22:24 10° N 02:26:39 25° WNW 02:30:54 10° WSW
STARLINK-29 4.4 02:23:54 10° WNW 02:26:54 36° N 02:29:53 10° ENE
ERBS 2.6 02:24:25 10° NW 02:27:46 70° NE 02:31:05 10° ESE
Meteor 1-11 4.4 02:23:05 10° SSW 02:28:39 61° WNW 02:34:12 10° N
STARLINK-1203 3.6 02:25:26 10° WNW 02:29:37 66° SSW 02:33:46 10° SE
STARLINK-1241 3.6 02:26:07 10° WNW 02:30:15 66° SSW 02:34:22 10° SE
Cosmos 1570 Rocket 4.3 02:25:37 10° SW 02:30:51 57° WNW 02:36:06 10° NNE
CZ-4B R/B 4.0 02:29:14 10° ESE 02:31:41 23° ENE 02:34:11 10° NNE
Cosmos 1953 Rocket 4.5 02:30:02 10° SW 02:34:06 34° WNW 02:38:12 10° N
STARLINK-1239 3.6 02:31:06 10° WNW 02:35:13 62° SSW 02:39:18 10° SE
Cosmos 2208 Rocket 4.3 02:31:16 10° SW 02:36:27 61° WNW 02:41:45 10° NNE
Cosmos 2227 Rocket 3.6 02:33:45 10° WNW 02:37:31 18° W 02:41:15 10° SW
IDEFIX/ARIANE 42P 3.0 02:32:34 10° NNE 02:37:51 67° ESE 02:43:05 10° S
Cosmos 1697 Rocket 3.2 02:33:55 10° SW 02:39:25 50° NW 02:44:58 10° NNE
Cosmos 1869 3.2 02:36:09 10° NNW 02:40:05 79° W 02:43:56 10° S
STARLINK-1240 3.7 02:36:06 10° WNW 02:40:12 57° SSW 02:44:15 10° SE
Cosmos 2154 Rocket 4.1 02:34:11 10° S 02:40:29 85° W 02:46:47 10° N
Cosmos 1842 Rocket 3.7 02:36:13 10° NNW 02:40:39 58° W 02:45:02 10° S
STARLINK-1338 3.9 02:38:12 10° W 02:41:43 53° NNW 02:45:14 10° ENE
Cosmos 1400 Rocket 3.8 02:39:00 10° NNW 02:42:38 30° W 02:46:15 10° SSW
Cosmos 1814 Rocket 4.3 02:38:28 10° SW 02:43:46 59° WNW 02:49:03 10° NNE
ATLAS CENTAUR R/B 4.1 02:43:58 10° NNW 02:44:48 10° NNW 02:45:37 10° N
STARLINK-1216 3.7 02:41:06 10° WNW 02:45:09 53° SSW 02:49:11 10° SE
IRIDIUM 104 4.4 02:40:37 10° S 02:45:49 78° W 02:51:05 10° N
Cosmos 1125 Rocket 3.6 02:41:59 10° NNW 02:47:13 90° ENE 02:52:25 10° SSE
